Regional Weather Roundup
Issued by NWS Jackson, KY

Home | Current Version | Previous Version | Text Only | Print | Product List | Glossary Off
Versions: 1 2 3 4 5 6 7 8 9 10 11 12 13 14 15 16 17 18 19 20 21 22 23 24 25 26 27 28 29 30 31 32 33 34 35 36 37 38 39 40 41 42 43 44 45 46 47 48 49 50

000
ASUS43 KJKL 191819
RWRJKL

EAST KENTUCKY HOURLY WEATHER ROUNDUP
NATIONAL WEATHER SERVICE JACKSON KY
200 PM EDT FRI SEP 19 2014

NOTE: "FAIR" INDICATES FEW OR NO CLOUDS BELOW 12,000 FEET WITH
NO SIGNIFICANT WEATHER AND/OR OBSTRUCTIONS TO VISIBILITY.

* THESE REPORTS ARE NOT UNDER NWS QUALITY CONTROL AND MAY NOT
  REPORT WEATHER SUCH AS PRECIPITATION AND FOG.

KYZ079-080-083-085-087-088-110-112-115-119-120-191900
...EASTERN KENTUCKY...

CITY           SKY/WX    TMP DP  RH WIND       PRES   REMARKS
JACKSON        SUNNY     73  58  59 CALM      30.13F
6HR MIN TEMP:  53; 6HR MAX TEMP:  74;

LONDON         SUNNY     79  61  53 VRB5      30.12F
6HR MIN TEMP:  55; 6HR MAX TEMP:  79;

SOMERSET*      SUNNY     77  55  47 E6        30.12F
MONTICELLO*    SUNNY     79  60  51 VRB6      30.11F
6HR MIN TEMP:  55; 6HR MAX TEMP:  79;

MIDDLESBORO*   MOSUNNY   78  61  55 SE3       30.11F
6HR MIN TEMP:  53; 6HR MAX TEMP:  79;

HARLAN APT*    CLOUDY    75  57  53 MISG      30.13S
HAZARD APT*    CLEAR     77  61  57 CALM      30.12
BLACK MTN*       N/A     68  57  68 S2          N/A
PIKEVILLE APT* SUNNY     73  61  64 CALM      30.14F
BIG SANDY*     CLEAR     74  62  65 CALM      30.14F
6HR MIN TEMP:  51; 6HR MAX TEMP:  74;

MOREHEAD APT*  CLEAR     73  52  46 VRB5      30.15F
$$

KYZ035-036-041-042-044-050-067-078-099-191900
...CENTRAL KENTUCKY...

CITY           SKY/WX    TMP DP  RH WIND       PRES   REMARKS
MT STERLING*   SUNNY     72  54  53 E6        30.15F
FLEMING/MASON* SUNNY     72  52  49 SE6       30.15F
DANVILLE*      SUNNY     73  55  53 NE6       30.13F
RICHMOND*      SUNNY     75  55  50 E3        30.12F
LEXINGTON      SUNNY     75  52  44 CALM      30.14F
6HR MIN TEMP:  55; 6HR MAX TEMP:  76;

FRANKFORT      SUNNY     74  51  44 NE8       30.13F
6HR MIN TEMP:  53; 6HR MAX TEMP:  74;

$$

KYZ091>093-OHZ055-061-077-WVZ005-015-034-035-042-191900
...SOUTHERN OHIO/WEST VIRGINIA...

CITY           SKY/WX    TMP DP  RH WIND       PRES   REMARKS
COVINGTON      SUNNY     72  47  40 E7        30.16F
COLUMBUS       MOSUNNY   74  45  35 NE5       30.17F
DAYTON         MOSUNNY   71  45  39 NE6       30.19F
WILMINGTON     SUNNY     70  48  45 NE10      30.16F
HUNTINGTON     SUNNY     73  57  57 N6        30.14F
CHARLESTON     MOSUNNY   77  61  57 VRB3      30.14F
PINEVILLE*     PTSUNNY   78  64  62 MISG      30.20F
BECKLEY        PTSUNNY   70  58  65 S12G18    30.21F
BLUEFIELD      MOSUNNY   71  57  61 VRB6      30.22F
$$

VAZ002-007-008-TNZ017-027-036-066-071-191900
...SOUTHWEST VIRGINIA/EAST TENNESSEE...

CITY           SKY/WX    TMP DP  RH WIND       PRES   REMARKS
WISE*          PTSUNNY   75  55  50 S9        30.19F
JONESVILLE*    MOCLDY    77  61  57 SE6       30.14F
ABINGDON*      PTSUNNY   80  58  46 S7        30.16F
BRISTOL        MOSUNNY   81  55  40 VRB6      30.13F
KNOXVILLE      MOSUNNY   80  59  48 CALM      30.08F
OAK RIDGE      SUNNY     81  60  48 VRB5      30.11F
CROSSVILLE     CLOUDY    77  58  51 SE7       30.13S
NASHVILLE      MOSUNNY   82  60  47 SE6       30.06F
$$

...KEY TO REMARKS...
VSB - VISIBILITY IN MILES
WCI - WIND CHILL INDEX
HX  - HEAT INDEX

$$



USA.gov is the U.S. government's official web portal to all federal, state and local government web resources and services.